Location: Moscow
(55.7500°N, 37.5830°E)
Time: 10:04:13
(UTC+03:00)

Vanguard 3 - Pass Details

Date: 03 December 2021
Orbit: 508 x 3260 km, 33.3° (Epoch: 19 January)

Event Time Altitude Azimuth Distance (km) Brightness Sun altitude
Rises 06:28:11 0° 243° (WSW) 7,224 11.5 -16.9°
Reaches altitude 10° 06:34:05 10° 235° (SW) 6,115 11.2 -16.1°
Maximum altitude 06:48:37 30° 185° (S) 3,995 10.8 -14.2°
Drops below altitude 10° 06:59:22 10° 131° (SE) 4,480 12.1 -12.8°
Sets 07:02:52 0° 121° (ESE) 5,102 13.2 -12.3°
